Погода в Ноябрьске

Погода в Ноябрьске : погода сейчас, прогноз погоды и архив. Всё, что Вы хотите узнать о погоде в Ноябрьске!

Поиск расширенной информации на нашем сайте:

Другие новости

Новости СМИ2

Главная страница сайта

Новости сайта

03.07.2017

Напоминаем, что на нашем специализированном сайте Метеоцентр.Азия вы можете получить высокодетализированные автоматические прогнозы погоды по пунктам России, СНГ и мира в авиационном формате (включающие направление и скорость ветра, видимость, явления погоды, количество и форму облачности, нижнюю и верхнюю границу облачности).


Погода в Ноябрьске - сегодня

Время (UTC), дата Ветер
(°,м/с) 
Видим.   Явления Облачность Т
(°С)
Тd
(°С)
f(%) Тe
(°С)
Pmin
(гПа)
dP
(гПа)
Po
(мм)
O2
(г/м3)
Тmin Tmax R s Состояние
почвы
15 17.10.17 170 (Ю) 20000 м    8/4 600 м средняя 
[Sc|Ac trans]
-1.7 -4.1 84 -5  1019.5  -1.5  752  305    +0.2       
18 17.10.17 170 (Ю) 20000 м    8/4 1000 м средняя 
[Sc|Ac trans]
-1.5 -2.8 91 -5  1017.4  -2.1  751  304           
21 17.10.17 180 (Ю) 5{10}  20000 м    10/8 240 м средняя 
[St|Ac und]
-1.6 -2.1 96 -5  1016.3  -1.1  750  304           
00 18.10.17 170 (Ю) 4{11}  20000 м    10/6 210 м средняя 
[St|Ac und]
-1.7 -2.1 97 -4  1014.9  -1.4  749  304           
03 18.10.17 170 (Ю) 20000 м    10/6 180 м средняя 
[St|Ac und]
-2 -2.1 99 -5  1014.1  -0.9  748  304  -2.2         
06 18.10.17 140 (ЮВ) 5-11{11}  20000 м    8/3 300 м средняя, верхняя 
[Sc|Ac trans|Ci fib]
+0.1 -2.3 84 -3  1012.2  -1.7  747  301           
09 18.10.17 160 (Ю) 6-11{11}  20000 м    10/10 150 м 
[St]
-2 -2.2 99 -6  1011.1  -1.2  746  303           
12 18.10.17 160 (Ю) 5-11{11}  10 км  дымка  10/10 120 м 
[St]
-0.5 -0.5 100 -4  1008.5  -2.4  744  300           
15 18.10.17 150 (ЮВ) 6-11{11}  2000 м  дымка  10/10 100 м 
[St]
-1.3 -1.3 100 -5  1007.1  -1.4  743  301    +0.5       
18 18.10.17 160 (Ю) 5{11}  4000 м  дымка  10/10 120 м 
[St]
-0.9 -0.9 100 -4  1006  -1.1  742  300           
21 18.10.17 160 (Ю) 20000 м    10/6 270 м средняя 
[Sc|Ac und]
-0.1 -0.4 98 -3  1004.9  -1  741  299           
00 19.10.17 160 (Ю) 20000 м    10/6 300 м средняя 
[Sc|Ac und]
-0.6 -1.3 95 -3  1004.3  -0.6  741  299           
03 19.10.17 160 (Ю) 20000 м    10/8 240 м средняя 
[St|Ac und]
-1.4 -1.8 97 -4  1004  -0.3  741  300  -1.4         
06 19.10.17 150 (ЮВ) 4000 м  слаб. переохл. дождь (гололёд)  10/8 180 м средняя 
[Frnb|As op]
-1.6 -1.6 100 -4  1003.9  0.1  741  300  -1.7         
09 19.10.17 160 (Ю) 4000 м  переохл. дождь (гололёд) [диам. гололёда 5 мм]  ясно 210 м 
-0.9 -0.9 100 -2  1003.7  0.1  741  299           
12 19.10.17 160 (Ю) 4000 м  слаб. переохл. дождь (гололёд) [диам. гололёда 6 мм]  10/8 210 м средняя 
[Frnb|As op]
-0.1 -0.1 100 -1  1003.8  0.1  741  298           
15 19.10.17 150 (ЮВ) 4000 м  слаб. переохл. дождь (гололёд) [диам. гололёда 6 мм]  10/6 180 м средняя 
[Frnb|As op]
-0.6 -0.6 100 1003.4  -0.4  740  299    -0.1     
18 19.10.17 150 (ЮВ) 4000 м  ливневой дождь со снегом [диам. гололёда 7 мм]  10/6 210 м кучево-дожд. 
[Cb cap]
-0.5 -0.5 100 1002.3  -1.1  740  299           
21 19.10.17 150 (ЮВ) 4000 м  слаб. ливневой снег [диам. гололёда 10 мм]  10/6 150 м кучево-дожд. 
[Cb cap]
-0.8 -0.8 100 1000.9  -1.4  738  298           
00 20.10.17 150 (ЮВ) 4000 м  слаб. ливневой дождь [диам. гололёда 11 мм]  10/10 120 м кучево-дожд. 
[Cb cap]
+0 +0 100 +1  999.3  -1.5  737  297           
03 20.10.17 150 (ЮВ) 0700 м  туман [диам. гололёда 8 мм]  ?/?  
+0.3 +0.3 100 -1  999  -0.3  737  297  -0.9    <0.5  мокрый или
старый снег
50-90% 
06 20.10.17 150 (ЮВ) 0700 м  туман{ливн. осадки} [диам. гололёда 1 мм]  ?/?  
+1.5 +1.5 100 -1  998.5  -0.4  737  295           
09 20.10.17 120 (ЮВ) 20000 м  {туман}  10/10 150 м 
[St]
+2.7 +2.7 100 +1  997.9  -0.5  736  293           
12 20.10.17 110 (В) 4000 м  дымка{туман} [диам. гололёда 0 мм]  10/10 120 м 
[St]
+2.2 +1.7 96 +1  997.6  -0.4  736  294           
15 20.10.17 100 (В) 2000 м  слаб. морось  10/10 100 м 
[St]
+1.7 +1.7 100 996.3  -1.3  735  294    +2.2  0.0     
Время (UTC), дата Ветер
(°,м/с) 
Видим.   Явления Облачность Т
(°С)
Тd
(°С)
f(%) Тe
(°С)
Pmin
(гПа)
dP
(гПа)
Po
(мм)
O2
(г/м3)
Тmin Tmax R s Состояние
почвы

Для получения пояснительной информации подведите курсор к названию столбца.

ПОГОДА в Ноябрьске - архив

Всё, что Вы хотите узнать о погоде в Ноябрьске - удобно и подробно!

Выберите нужную дату (начиная с 1 января 2015* года) и нажмите кнопку "Найти".
Будут отображены архивные сводки погоды по пункту Ноябрьск, начиная с указанной даты.


Отображать данные в формате CSV (для использования в таблицах Excel)


Внимание! Наш архив погоды предназначен исключительно для личного некоммерческого использования в познавательных целях. Если Вам необходимы официальные справки о состоянии погоды (для производственных, юридических, коммерческих и т.п. целей), обращайтесь в органы Росгидромета.

*Примечание: данная дата относится к архиву по метеостанциям СССР (Россия, СНГ, Балтия).
Архив по метеостанциям Зарубежной Европы и Азии (кроме Китая) хранится 10 дней, по другим регионам земного шара (Китай, Африка, Америка, Австралия, Океания) - 1 день.

Ноябрьск - район местоположения метеостанции


Название, широта, долгота, высота метеостанции:
Ноябрьск 63.2°ш. 75.4°д. 120 м над ур. моря [Российская Федерация]

Дополнительная информация

В oтличие oт бoльшинства пoгoдных сайтoв мы публикуем пoдрoбную метеoинфoрмацию в детальнoм прoфессиoнальнoм фoрмате.

Характеристики температуры и влажнoсти вoздуха измеряются на высoте 2 м в тени вдали oт зданий и деревьев.
Скoрoсть ветра измеряется на высoте 10 м (на урoвне рoста челoвека скoрoсть ветра ниже в 1.5-2 раза). Если метеoстанция нахoдится в гoрoде или в лесу, тo скoрoсть ветра занижена на 2-4 м/с пo сравнению с oткрытым местoм. Скoрoсть ветра над акватoриями крупных рек и oзёр, а также на вершинах хoлмoв на 2-5 м/с выше, чем в oбычных услoвиях.
Атмoсфернoе давление в разных тoчках местнoсти мoжет значительнo oтличаться oт давления на метеoстанции, в зависимoсти oт услoвий рельефа (при пoдъёме на 10 м давление пoнижается примернo на 1 мм рт.ст.).